Showing default

YAOGAN-43 03B, 61618

Orbit data source: Space-Track

YAOGAN-43 03B, 61618 is a payload satellite owned by PLA GAD (CN) in LEO that was launched on Wed, 23 Oct 2024 UTC via a CHANG ZHENG 2C launch vehicle from the Xichang Space Center, China (XSC). Payload-class satellites include a variety of spacecraft equipped with specific instruments for various scientific and technological missions. These include communications satellites like Starlink; space stations such as the ISS; scientific satellites like the Hubble; Earth observation satellites from companies like Planet Labs, Umbra, and HawkEye 360; GPS; miniature CubeSats for education and research; and military/defense satellites.

Loading next visibility...
Identifier
61618, 2024-190B
Orbit
LEO
Country
Flag of CNCN / PRC
Related business
Manufacturer
SAST
Mission
Operational Defense Communications
Bus & Motor
Unknown
Mass
~300 kg wet, ~300 kg dry
Launch date (UTC)
2024-10-23 (2 years ago)
Launch vehicle
CHANG ZHENG 2C
Launch site
Xichang Space Center, China (XSC)
Object type
Payload
Rocket body
Debris
Shape & HBR
Box + 2 Pan, 2.5 m
Radar Cross Section
11.063 m², Large (>1 m²)

Expand to show TLE details & history
Last TLE update: 15 hours ago

TLE from 15 hours ago
0 YAOGAN-43 03B
1 61618U 24190B   26129.30979707  .00006413  00000-0  26691-3 0  9991
2 61618  34.9878  82.1535 0006353   5.0735 355.0043 15.23056660 85933
Epoch: 2026-05-09T07:26Z
TLE epoch observation values (Epoch: 2026-05-09T07:26:06.466Z)
Latitude
-0.00003°
Longitude
103.49744°
Altitude
491.183 km
Speed
7.624 km/s
True Right ascension
05h 28m 36s
True Declination
0° 00' 00"
Sunlit
Object was in daylight at epoch
Visualization orbit readout
Latitude
Unknown
Longitude
Unknown
Altitude
Unknown
Speed
Unknown
Apparent Right ascension
Unknown
Apparent Declination
Unknown
Sunlit
N/A
Visualization observer readout
Local Sidereal Time
06:47:36
Azimuth
Unknown
Elevation
Unknown
Doppler factor
Unknown
Orbital elements
Apogee altitude
504.249 km
Perigee altitude
495.51 km
Semi-major axis
6,878.016 km
Eccentricity
0.00064
Inclination
34.9878°
RAAN
82.1535°
Arg. of periapsis
5.0735°
True anomaly
354.99796°
Mean anomaly
355.0043°
Eccentric anomaly
355.00113°
Mean motion
3.80494 °/min
Orbital period
94.61 mins
BSTAR
0.00026691
Loading maneuver chart data...
Computing Atmospheric mass density...
Loading historical data...
Loading historical data...
Loading historical data...
Loading historical data...
Loading historical data...
Loading historical data...
Loading historical data...
Other satellites on launch #190 in the year 2024 (2024-10-23 UTC)

Documentation

Showing up to 5 results
|